EW1449 Weather Reports


time (UTC)temp
C
wind
direction
speed
KPH
gust
KPH
rain 1hr
cm
rain 24hr
cm
rain mn
cm
humidity
%
barometer
mb
20260504194728 16 226 9.7 24.1 0.00 0.00 0.00 67 1016.1
20260504194224 16 260 4.8 17.7 0.00 0.00 0.00 68 1016.1
20260504193720 16 143 9.7 16.1 0.00 0.00 0.00 67 1016.0
20260504193218 16 239 8.0 22.5 0.00 0.00 0.00 67 1016.1
20260504192716 16 214 12.9 22.5 0.00 0.00 0.00 66 1016.3
20260504192214 16 219 3.2 16.1 0.00 0.00 0.00 65 1016.2
20260504191712 17 202 17.7 22.5 0.00 0.00 0.00 65 1016.1
20260504191209 16 223 3.2 16.1 0.00 0.00 0.00 67 1016.2
20260504190704 16 250 8.0 17.7 0.00 0.00 0.00 66 1016.2
20260504190201 16 203 17.7 25.7 0.00 0.00 0.00 65 1016.3
20260504185657 17 244 8.0 16.1 0.00 0.00 0.00 65 1016.3
20260504185154 17 220 6.4 16.1 0.00 0.00 0.00 66 1016.4
20260504184650 17 195 3.2 12.9 0.00 0.00 0.00 63 1016.4
20260504184145 16 201 11.3 24.1 0.00 0.00 0.00 65 1016.6
20260504183642 16 218 12.9 25.7 0.00 0.00 0.00 65 1016.6
20260504183139 16 224 6.4 11.3 0.00 0.00 0.00 66 1016.7
20260504182637 16 271 11.3 27.4 0.00 0.00 0.00 67 1016.6
20260504182134 16 221 12.9 20.9 0.00 0.00 0.00 66 1016.6
20260504181632 17 195 8.0 22.5 0.00 0.00 0.00 67 1016.7
20260504181129 16 239 8.0 25.7 0.00 0.00 0.00 66 1016.8
20260504180628 16 236 4.8 17.7 0.00 0.00 0.00 66 1017.0
20260504180126 16 206 9.7 14.5 0.00 0.00 0.00 67 1016.8
20260504175624 16 242 4.8 16.1 0.00 0.00 0.00 69 1016.7
20260504175120 16 221 6.4 17.7 0.00 0.00 0.00 68 1017.0
20260504174618 16 229 6.4 14.5 0.00 0.00 0.00 69 1017.0
20260504174114 15 253 16.1 22.5 0.00 0.00 0.00 70 1016.9
20260504173611 15 201 9.7 27.4 0.00 0.00 0.00 71 1016.9
20260504173109 16 237 11.3 22.5 0.00 0.00 0.00 70 1017.1
20260504172605 15 138 6.4 22.5 0.00 0.00 0.00 71 1017.0
20260504172102 15 209 9.7 24.1 0.00 0.00 0.00 72 1017.0
20260504171558 15 226 14.5 20.9 0.00 0.00 0.00 71 1017.4
20260504171055 15 205 8.0 22.5 0.00 0.00 0.00 72 1017.5
20260504170551 16 224 11.3 24.1 0.00 0.00 0.00 71 1017.6
20260504150930 15 227 8.0 17.7 0.00 0.00 0.00 66 1018.4
20260504150427 15 199 4.8 17.7 0.00 0.00 0.00 68 1018.6
20260504140853 15 227 9.7 17.7 0.00 0.00 0.00 65 1018.7
20260504140349 15 179 4.8 12.9 0.00 0.00 0.00 61 1018.7
20260504130817 14 206 11.3 14.5 0.00 0.00 0.00 60 1019.1
20260504130313 13 253 4.8 22.5 0.00 0.00 0.00 61 1019.3
20260504120237 12 214 4.8 11.3 0.00 0.00 0.00 63 1019.2
20260504110704 11 221 3.2 4.8 0.00 0.00 0.00 64 1019.6
20260504110200 11 228 1.6 4.8 0.00 0.00 0.00 65 1019.5
20260504100119 10 218 1.6 3.2 0.00 0.00 0.00 65 1019.5
20260504081512 9 216 1.6 1.6 0.00 0.00 0.00 65 1018.8
20260504081008 9 220 1.6 3.2 0.00 0.00 0.00 64 1018.7
20260504080504 9 215 1.6 4.8 0.00 0.00 0.00 64 1018.9
20260504050317 10 224 1.6 3.2 0.00 0.00 0.00 65 1017.8
20260504045814 10 209 1.6 3.2 0.00 0.00 0.00 65 1017.7
20260504045314 10 227 1.6 3.2 0.00 0.00 0.00 64 1017.9
20260504044812 10 231 1.6 3.2 0.00 0.00 0.00 64 1017.7
20260504044309 10 228 3.2 3.2 0.00 0.00 0.00 63 1017.8
20260504043806 10 232 1.6 3.2 0.00 0.00 0.00 63 1017.9
20260504043303 10 226 1.6 3.2 0.00 0.00 0.00 64 1017.6
20260504042800 9 232 1.6 1.6 0.00 0.00 0.00 65 1017.7
20260504042257 9 244 0.0 1.6 0.00 0.00 0.00 66 1017.6
20260504041753 9 247 0.0 1.6 0.00 0.00 0.00 67 1017.5
20260504041249 8 259 0.0 1.6 0.00 0.00 0.00 67 1017.6
20260504040745 9 259 0.0 0.0 0.00 0.00 0.00 67 1017.6
20260504040243 9 259 0.0 1.6 0.00 0.00 0.00 66 1017.6
20260504035739 8 259 0.0 1.6 0.00 0.00 0.00 68 1017.4
20260504035236 8 259 0.0 0.0 0.00 0.00 0.00 68 1017.7
20260504034734 9 259 0.0 0.0 0.00 0.00 0.00 67 1017.5
20260504034231 9 259 0.0 0.0 0.00 0.00 0.00 67 1017.7
20260504033728 8 259 0.0 1.6 0.00 0.00 0.00 67 1017.6
20260504033226 7 259 0.0 0.0 0.00 0.00 0.00 71 1017.3
20260504032723 7 259 0.0 0.0 0.00 0.00 0.00 71 1017.5
20260504032220 7 259 0.0 0.0 0.00 0.00 0.00 71 1017.4
20260504031716 7 259 0.0 0.0 0.00 0.00 0.00 71 1017.4
20260504031214 7 259 0.0 0.0 0.00 0.00 0.00 71 1017.4
20260504030709 7 259 0.0 0.0 0.00 0.00 0.00 70 1017.3
20260504030207 7 259 0.0 0.0 0.00 0.00 0.00 69 1017.4
20260504025703 7 259 0.0 0.0 0.00 0.00 0.00 68 1017.4
20260504025200 7 259 0.0 0.0 0.00 0.00 0.00 67 1017.4
20260504024657 7 259 0.0 0.0 0.00 0.00 0.00 66 1017.4
20260504024153 7 259 0.0 0.0 0.00 0.00 0.00 64 1017.3
20260504023650 7 259 0.0 0.0 0.00 0.00 0.00 62 1017.4
20260504023146 7 259 0.0 0.0 0.00 0.00 0.00 63 1017.4
20260504022643 7 259 0.0 0.0 0.00 0.00 0.00 63 1017.4
20260504022138 7 259 0.0 1.6 0.00 0.00 0.00 63 1017.4
20260504021637 7 259 0.0 0.0 0.00 0.00 0.00 61 1017.4
20260504021133 8 259 0.0 0.0 0.00 0.00 0.00 58 1017.1
20260504020630 8 259 0.0 0.0 0.00 0.00 0.00 59 1017.2
20260504020126 8 259 0.0 0.0 0.00 0.00 0.00 57 1017.3
20260504015623 8 259 0.0 0.0 0.00 0.00 0.00 57 1017.3
20260504015119 8 259 0.0 0.0 0.00 0.00 0.00 57 1017.1
20260504014615 9 259 0.0 0.0 0.00 0.00 0.00 55 1017.2
20260504014113 9 259 0.0 0.0 0.00 0.00 0.00 53 1017.2
20260504013610 10 259 0.0 1.6 0.00 0.00 0.00 51 1017.1
20260504013107 9 259 0.0 0.0 0.00 0.00 0.00 50 1017.0
20260504012604 9 259 0.0 0.0 0.00 0.00 0.00 51 1017.0
20260504012102 8 259 0.0 0.0 0.00 0.00 0.00 50 1016.7
20260504011559 8 259 0.0 0.0 0.00 0.00 0.00 49 1016.7
20260504011055 9 259 0.0 0.0 0.00 0.00 0.00 48 1016.9
20260504010550 10 259 0.0 0.0 0.00 0.00 0.00 48 1016.7
20260504010047 10 259 0.0 0.0 0.00 0.00 0.00 44 1016.7
20260504005544 10 259 0.0 0.0 0.00 0.00 0.00 43 1016.4
20260504005041 11 259 0.0 0.0 0.00 0.00 0.00 42 1016.5
20260504004539 11 259 0.0 0.0 0.00 0.00 0.00 40 1016.4
20260504004036 11 259 0.0 0.0 0.00 0.00 0.00 39 1016.3
20260504003532 11 259 0.0 0.0 0.00 0.00 0.00 39 1016.4
20260504003029 11 259 0.0 0.0 0.00 0.00 0.00 39 1016.3
20260504002525 11 259 0.0 0.0 0.00 0.00 0.00 39 1016.3
20260504002023 12 259 0.0 0.0 0.00 0.00 0.00 38 1016.3
20260504001521 12 259 0.0 1.6 0.00 0.00 0.00 37 1016.2
20260504001017 12 259 0.0 1.6 0.00 0.00 0.00 37 1016.0
20260504000514 12 259 0.0 1.6 0.00 0.00 0.00 38 1015.8
20260504000011 12 259 0.0 1.6 0.00 0.00 0.00 37 1015.9
20260503235509 12 259 0.0 1.6 0.00 0.00 0.00 37 1015.8
20260503235006 12 260 0.0 1.6 0.00 0.00 0.00 36 1015.8
20260503234503 13 287 0.0 6.4 0.00 0.00 0.00 35 1015.6
20260503234002 13 253 0.0 1.6 0.00 0.00 0.00 35 1015.7
20260503233457 13 251 0.0 1.6 0.00 0.00 0.00 35 1015.6
20260503232954 13 244 0.0 1.6 0.00 0.00 0.00 34 1015.3
20260503232451 13 269 3.2 3.2 0.00 0.00 0.00 34 1015.4
20260503231949 14 319 1.6 6.4 0.00 0.00 0.00 33 1015.3
20260503231446 14 269 3.2 11.3 0.00 0.00 0.00 32 1015.2
20260503230942 14 312 1.6 4.8 0.00 0.00 0.00 34 1015.3
20260503230439 14 301 1.6 9.7 0.00 0.00 0.00 32 1015.3
20260503225937 14 252 3.2 14.5 0.00 0.00 0.00 32 1015.2
20260503225433 15 257 3.2 12.9 0.00 0.00 0.00 32 1015.5
20260503224929 15 285 4.8 6.4 0.00 0.00 0.00 32 1015.1
20260503224426 14 317 3.2 6.4 0.00 0.00 0.00 32 1015.0
20260503223924 15 271 4.8 12.9 0.00 0.00 0.00 32 1015.1
20260503223422 15 291 6.4 9.7 0.00 0.00 0.00 31 1015.0
20260503222917 15 272 3.2 9.7 0.00 0.00 0.00 31 1015.1
20260503222416 15 259 4.8 20.9 0.00 0.00 0.00 32 1015.1
20260503221914 15 270 3.2 9.7 0.00 0.00 0.00 33 1015.0
20260503221412 15 256 3.2 9.7 0.00 0.00 0.00 32 1015.2
20260503220908 15 350 3.2 4.8 0.00 0.00 0.00 33 1015.0
20260503220404 15 302 3.2 6.4 0.00 0.00 0.00 33 1015.1
20260503215902 15 310 3.2 9.7 0.00 0.00 0.00 33 1015.1
20260503215358 15 287 3.2 12.9 0.00 0.00 0.00 33 1015.0
20260503214856 15 218 0.0 3.2 0.00 0.00 0.00 34 1015.0
20260503214353 15 24 6.4 12.9 0.00 0.00 0.00 33 1015.2
20260503213850 14 339 8.0 14.5 0.00 0.00 0.00 33 1015.0
20260503213348 15 11 4.8 16.1 0.00 0.00 0.00 33 1014.9
20260503212845 14 296 14.5 27.4 0.00 0.00 0.00 33 1014.8
20260503212343 15 359 8.0 9.7 0.00 0.00 0.00 33 1014.9
20260503211839 15 211 4.8 11.3 0.00 0.00 0.00 33 1014.9
20260503211336 15 305 6.4 11.3 0.00 0.00 0.00 33 1014.8
20260503210831 15 271 4.8 14.5 0.00 0.00 0.00 34 1014.7
20260503210329 15 291 6.4 14.5 0.00 0.00 0.00 33 1014.8
20260503205824 15 2 3.2 12.9 0.00 0.00 0.00 34 1014.8
20260503205321 15 245 4.8 12.9 0.00 0.00 0.00 33 1014.8
20260503204817 14 196 1.6 3.2 0.00 0.00 0.00 36 1014.7
20260503204315 14 225 6.4 9.7 0.00 0.00 0.00 35 1014.8
20260503203812 14 6 3.2 11.3 0.00 0.00 0.00 35 1014.8
20260503203309 15 284 3.2 12.9 0.00 0.00 0.00 35 1014.7
20260503202806 15 273 4.8 4.8 0.00 0.00 0.00 35 1014.7
20260503202304 15 263 6.4 16.1 0.00 0.00 0.00 35 1015.0
20260503201802 15 274 6.4 9.7 0.00 0.00 0.00 36 1014.7
20260503201259 15 251 6.4 22.5 0.00 0.00 0.00 36 1014.9
20260503200756 14 291 4.8 9.7 0.00 0.00 0.00 35 1015.1
20260503200251 15 320 8.0 14.5 0.00 0.00 0.00 36 1015.0
20260503195743 13 349 6.4 11.3 0.00 0.00 0.00 38 1015.1
20260503195240 13 81 4.8 20.9 0.00 0.00 0.00 38 1015.3